#timestamp,LO_Frequency,Hit,StdDev 
1513148415.5,286047013.8,N
1513148435.4,286047014.8,N
1513148455.2,286047016.6,Y
1513148475.0,286047009.6,P
1513148475.9,286047009.6,P
1513148495.8,286047009.5,P
1513148515.6,286047011.2,Y
1513148535.5,286047003.9,P
1513148555.3,286047003.3,N
1513148575.1,286047005.4,N
1513148595.9,286047007.5,Y
1513148615.7,286047001.8,P
1513148635.5,286047002.0,N
1513148655.4,286047002.5,N
1513148675.2,286046999.7,N
1513148695.1,286047001.8,N
1513148696.0,286047001.8,N
1513148715.8,286047003.7,N
1513148735.6,286047005.4,Y
1513148755.5,286047002.1,P
1513148775.3,286047001.5,P
1513148795.2,286046999.8,N
1513148815.9,286047002.2,N
1513148835.7,286047002.0,N
1513148855.6,286047002.6,N
1513148875.4,286046999.8,N
1513148895.2,286046998.9,N
1513148915.1,286046999.1,N
1513148916.0,286046999.1,N
1513148935.8,286046998.5,N
1513148955.7,286046999.0,N
1513148975.5,286046999.1,N
1513148995.3,286047000.8,N
1513149015.2,286046998.4,N
1513149035.0,286046996.7,N
1513149035.9,286046996.7,N
1513149055.7,286046999.5,N
1513149075.6,286046998.1,N
1513149095.4,286046997.0,N
1513149115.3,286046997.2,N
1513149135.1,286046997.5,N
1513149136.0,286046997.5,N
1513149155.8,286047001.2,N
1513149175.7,286046999.8,N
1513149195.5,286047000.3,N
1513149215.3,286047002.3,N
1513149235.2,286047002.6,N
1513149255.0,286047002.4,N
1513149255.9,286047002.4,N
1513149275.8,286047003.8,N
1513149295.6,286047000.1,N
1513149315.4,286047002.0,N
1513149335.3,286047002.4,N
1513149355.1,286047001.2,N
1513149375.8,286047000.7,N
1513149395.7,286047000.4,N
1513149415.5,286047002.0,N
1513149435.4,286047001.8,N
1513149455.2,286047000.3,N
1513149475.0,286047000.3,N
1513149475.9,286047000.3,N
1513149495.8,286047002.6,N
1513149515.6,286047001.7,N
1513149535.4,286047002.4,N
1513149555.3,286047000.4,N
1513149575.1,286046999.8,N
1513149595.9,286046998.2,N
1513149615.7,286047002.7,N
1513149635.5,286047000.0,N
1513149655.4,286047000.1,N
1513149675.2,286047004.3,N
1513149695.1,286047000.0,N
1513149696.0,286047000.0,N
1513149715.8,286047000.2,N
1513149735.6,286047001.4,N
1513149755.5,286047002.1,N
1513149775.3,286047001.4,N
1513149795.2,286047004.3,Y
1513149815.9,286047002.3,P
1513149835.7,286047004.1,P
1513149855.6,286047001.3,N
1513149875.4,286047003.9,Y
1513149895.2,286046998.1,P
1513149915.1,286047000.6,N
1513149916.0,286047000.6,N
1513149935.8,286046998.2,N
1513149955.7,286046998.5,N
1513149975.5,286046998.5,N
1513149995.3,286046998.9,N
1513150015.2,286046996.9,N
1513150035.0,286046998.2,N
1513150035.9,286046998.2,N
1513150055.8,286047002.4,N
1513150075.6,286047004.3,N
1513150095.4,286047005.9,N
1513150115.3,286047002.9,N
1513150135.1,286047004.2,N
1513150155.8,286047003.3,N
1513150175.7,286047004.5,N
1513150195.5,286047005.0,N
1513150215.4,286047006.0,N
1513150235.2,286047005.5,N
1513150255.0,286047005.9,N
1513150255.9,286047005.9,N
1513150275.8,286047004.6,N
1513150295.6,286047007.1,N
1513150315.4,286047006.5,N
1513150335.3,286047008.8,N
1513150355.1,286047004.9,N
1513150375.9,286047007.2,N
1513150395.7,286047005.9,N
1513150415.5,286047004.5,N
1513150435.4,286047005.6,N
1513150455.2,286047005.7,N
1513150475.0,286047003.5,N
1513150475.9,286047003.5,N
1513150495.8,286047003.8,N
1513150515.6,286047003.5,N
1513150535.5,286047004.3,N
1513150555.3,286047004.4,N
1513150575.1,286047002.0,N
1513150595.9,286047003.8,N
1513150615.7,286047002.5,N
1513150635.5,286047000.6,N
1513150655.4,286047000.1,N
1513150675.2,286046998.3,N
1513150695.1,286046998.1,N
1513150696.0,286046998.1,N
1513150715.8,286047000.0,N
1513150735.6,286047002.7,N
1513150755.5,286047002.4,N
1513150775.3,286047001.6,N
1513150795.2,286047002.4,N
1513150815.9,286047001.1,N
1513150835.7,286046999.7,N
1513150855.6,286047000.9,N
1513150875.4,286047002.3,N
1513150895.2,286046999.8,N
1513150915.1,286047002.3,N
1513150916.0,286047002.3,N
1513150935.8,286047000.1,N
1513150955.7,286046999.8,N
1513150975.5,286047002.7,N
1513150995.3,286047002.3,N
1513151015.2,286047002.8,N
1513151035.0,286047000.6,N
1513151035.9,286047000.6,N
1513151055.8,286047000.7,N
1513151075.6,286047000.6,N
1513151095.4,286047002.6,N
1513151115.3,286047002.2,N
1513151135.1,286047001.1,N
1513151155.8,286047000.1,N
1513151175.7,286047002.6,N
1513151195.5,286047001.9,N
1513151215.4,286047001.6,N
1513151235.2,286047004.4,Y
1513151255.0,286047003.9,P
1513151255.9,286047003.9,N
1513151275.8,286047001.3,N
1513151295.6,286047001.4,N
1513151315.5,286047002.6,N
1513151335.3,286047002.4,N
1513151355.1,286047000.1,N
1513151375.9,286046998.4,N
1513151395.7,286046996.7,N
1513151415.5,286046999.3,N
1513151435.4,286046997.3,N
1513151455.2,286046996.3,N
1513151475.1,286046999.1,N
1513151476.0,286046999.1,N
1513151495.8,286046996.6,N
1513151515.6,286046998.0,N
1513151535.5,286046996.0,N
1513151555.3,286046993.6,N
1513151575.1,286046993.6,N
1513151595.9,286046996.4,N
1513151615.7,286046994.3,N
1513151635.6,286046993.9,N
1513151655.4,286046991.7,N
1513151675.2,286046993.5,N
1513151695.1,286046991.8,N
1513151696.0,286046991.8,N
1513151715.8,286046991.7,N
1513151735.7,286046993.0,N
1513151755.5,286046992.3,N
1513151775.3,286046992.2,N
1513151795.2,286046993.4,N
1513151815.9,286046996.2,N
1513151835.7,286046993.4,N
1513151855.6,286046991.7,N
1513151875.4,286046991.8,N
1513151895.2,286046991.9,N
1513151915.1,286046994.8,N
1513151916.0,286046994.8,N
1513151935.8,286046991.9,Y
1513151955.7,286046997.2,P
1513151975.5,286046997.8,N
1513151995.3,286046998.8,N
